{"data":{"norad_id":64393,"intl_designator":"2025-128A","name":"ZHANGHENG 1-02 (CSES-2)","alt_names":[],"object_type":"PAYLOAD","status":"ACTIVE","operator":null,"country":"PRC","launch_date":"2025-06-14","launch_site_code":"JSC","launch_vehicle":null,"mission":null,"orbit_class":"UNKNOWN","rcs_meters":null,"size_class":null,"mass_kg":null,"dimensions":null,"purposes":[],"wikipedia_slug":null,"has_3d_model":false,"image_url":null,"decayed_at":null,"tle_current":{"epoch":"2026-05-24T18:19:04.196928Z","epoch_age_seconds":91532,"freshness":"FRESH","line1":"1 64393U 25128A   26144.76324302 -.00000046  00000+0  10121-5 0  9997","line2":"2 64393  97.3568 272.0944 0012691 188.9851 171.1160 15.20970536 52363","mean_motion":15.20970536,"eccentricity":0.0012691,"inclination_deg":97.3568,"raan_deg":272.0944,"arg_perigee_deg":188.9851,"mean_anomaly_deg":171.116,"bstar":1.0121e-6,"rev_number":5236,"period_min":94.676390233505,"perigee_km":494.17910486131,"apogee_km":511.64458303702,"semimajor_km":6881.0488439492,"source":"CELESTRAK","updated_at":"2026-05-25T13:38:04.497171Z"}}}